Location: Aufkirchen
(47.9603°N, 11.3653°E)
Time: 14:52:49
(UTC+01:00)

Transit 2A Rocket - Pass Details

Date: 14 December 2020
Orbit: 592 x 910 km, 66.7° (Epoch: 21 January)

Event Time Altitude Azimuth Distance (km) Brightness Sun altitude
Rises 20:34:06 0° 153° (SSE) 3,479 - -41.0°
Reaches altitude 10° 20:38:28 10° 123° (ESE) 2,494 - -41.7°
Maximum altitude 20:40:23 12° 103° (ESE) 2,344 - -42.0°
Drops below altitude 10° 20:42:18 10° 84° (E) 2,438 - -42.3°
Sets 20:46:24 0° 53° (NE) 3,298 - -43.0°
